Regional Weather Roundup
Issued by NWS San Diego, CA

Home | Current Version | Previous Version | Text Only | Print | Product List | Glossary On
Versions: 1 2 3 4 5 6 7 8 9 10 11 12 13 14 15 16 17 18 19 20 21 22 23 24 25 26 27 28 29 30 31 32 33 34 35 36 37 38 39 40 41 42 43 44 45 46 47 48 49 50
000
ASUS46 KSGX 021811
RWRSGX

SAN DIEGO HOURLY WEATHER ROUNDUP
NATIONAL WEATHER SERVICE SAN DIEGO CA
1000 AM PST MON MAR 02 2015

NOTE: "FAIR" INDICATES FEW OR NO CLOUDS BELOW 12,000 FEET WITH NO
SIGNIFICANT WEATHER AND/OR OBSTRUCTIONS TO VISIBILITY.

CAZ042-043-060-061-PZZ750-775-021900-

GREATER SAN DIEGO AREA

CITY           SKY/WX    TMP DP  RH WIND       PRES   REMARKS
LINDBERGH FLD  PTSUNNY   58  48  69 S7        29.96S
NATIONAL CITY    N/A     61  54  78 S7        29.96S
CHULA VISTA      N/A     58  53  83 CALM      29.89R
IMPERIAL BEACH PTSUNNY   59  51  75 S12       29.96S
BROWN FIELD    CLOUDY    56  48  74 S6        29.95S
MIRAMAR MCAS   PTSUNNY   58  48  69 SE10      29.94S
MONTGOMERY FLD PTSUNNY   56  49  77 SE8       29.95R

$$

NORTH SAN DIEGO COUNTY

CITY           SKY/WX    TMP DP  RH WIND       PRES   REMARKS
CAMP PENDLETON PTSUNNY   56  45  66 E3        29.94S
OCEANSIDE AP   MOSUNNY   55  47  74 NE6       29.93F
OCEANSIDE HBR    N/A     55  50  82 NE6       29.96F
VISTA            N/A     52  48  86 CALM      29.93F
CARLSBAD       MOSUNNY   53  48  83 NE6       29.93S
DEL MAR          N/A     57  51  79 SW6       29.96S
LA JOLLA SCRIP   N/A     57  25  29 CALM      29.92S
FALLBROOK        N/A     53  52  99 NE5       29.95F
ESCONDIDO        N/A     52  48  86 NE1       29.97S
SAN MARCOS       N/A     50  47  88 CALM      29.94S
POWAY            N/A     57  52  84 SE5       29.97S

$$

EAST SAN DIEGO COUNTY

CITY           SKY/WX    TMP DP  RH WIND       PRES   REMARKS
RAMONA         LGT RAIN  49  44  83 NW5       29.94R
SANTEE LAKES     N/A     55  51  87 CALM      29.97R
LA MESA          N/A     52  48  85 CALM      29.91R
JAMUL            N/A     53  50  88 CALM      29.96S
DESCANSO N       N/A     40  38  92 CALM      29.90R
MT. LAGUNA OBS   N/A     31  31 100 CALM      29.48R
CAMPO            N/A     43  41  93 SW7       29.91R

$$

ORANGE COUNTY AND THE LOS ANGELES BASIN

CITY           SKY/WX    TMP DP  RH WIND       PRES   REMARKS
JOHN WAYNE AP  PTSUNNY   59  44  57 CALM      29.93R
LAGUNA BEACH     N/A     60  51  70 S3        29.89R
LAKE FOREST FR   N/A     56  43  62 SW1       29.84S
SANTA ANA        N/A     55  51  87 CALM      29.89R
HUNTINGTON BCH   N/A     55  49  79 W5        29.95R
LOS ALAMITOS   TSTM      54  46  76 S2        29.93S
FULLERTON      LGT RAIN  56  45  66 CALM      29.92R
LONG BEACH     RAIN      55  48  77 N9        29.93R
L.A. AP        LGT RAIN  53  47  79 CALM      29.93S
L.A. DOWNTOWN  CLOUDY    54  45  71 CALM      29.93S

$$

THE INLAND EMPIRE

CITY           SKY/WX    TMP DP  RH WIND       PRES   REMARKS
CORONA         PTSUNNY   54  44  68 CALM      29.94S
CHINO          PTSUNNY   57  45  64 CALM      29.94S
ONTARIO        PTSUNNY   54  42  64 VRB3      29.92S
RIVERSIDE AP   PTSUNNY   54  41  61 CALM      29.93R
RIV CYN CREST    N/A     53  51  92 S9          N/A
MORENO VALLEY    N/A     51  48  89 E6        29.12S
MARCH ARB      PTSUNNY   52  45  75 SE9       29.91S
HORSETHIEF CYN   N/A     51  45  78 E3        29.92S
PERRIS           N/A     51  46  82 S6          N/A
MENIFEE          N/A     51  47  86 S7        30.03S
HEMET EAST       N/A     45  42  88 CALM      29.96R
FRENCH VALLEY  FAIR      52  43  71 SE5       29.93F
TEMECULA         N/A     49  49  99 S7        29.89S

$$

SAN BERNARDINO AND RIVERSIDE COUNTY MOUNTAINS

CITY           SKY/WX    TMP DP  RH WIND       PRES   REMARKS
BIG BEAR AP    MOSUNNY   30  23  74 W16G25    29.84R WCI  19
ANGELUS OAKS     N/A     32  30  92 CALM      29.91R
PINE COVE        N/A     31  30  98 CALM      29.99R

$$

SOUTHERN DESERT INCLUDING THE COACHELLA VALLEY

CITY           SKY/WX    TMP DP  RH WIND       PRES   REMARKS
PALM SPRINGS   LGT RAIN  56  45  66 CALM      29.93R
THOUSAND PALMS   N/A     59  49  70 SE5       29.92R
PALM DESERT      N/A     60  49  66 CALM      31.27S
THERMAL        PTSUNNY   58  51  78 S7        29.91S
BLYTHE         MOSUNNY   58  49  72 S15       29.92S
IMPERIAL AP    CLOUDY    61  44  53 SW12      29.92S
EL CENTRO NAS  PTSUNNY   61  48  62 S12       29.93S
YUMA AZ        PTSUNNY   57  49  74 CALM      29.94S
MEXICALI       MOSUNNY   59  52  77 S7        29.95

$$

UPPER DESERT

CITY           SKY/WX    TMP DP  RH WIND       PRES   REMARKS
VICTORVILLE AP MOSUNNY   48  34  57 SW5       29.86S
HESPERIA         N/A     47  37  69 W6        30.04S
APPLE VALLEY     N/A     49  32  52 SW16G23   29.94S
PALMDALE       MOSUNNY   50  35  56 SW18      29.87R
LANCASTER      SUNNY     50  34  54 SW17G24   29.87S
EDWARDS AFB    MOSUNNY   52  34  49 SW17G26   29.83F
DAGGETT        MOSUNNY   55  32  41 W15       29.84F
29 PALMS N     MOSUNNY   51  40  65 S15       29.94R
NEEDLES        PTSUNNY   57  46  66 SW10      29.87F

$$

REGIONAL REPORTS

CITY           SKY/WX    TMP DP  RH WIND       PRES   REMARKS
SANTA BARBARA  MOSUNNY   58  46  64 S7        29.91S
SANDBERG       FOG       38  34  85 S14       29.86S VSB 3/4 WCI  30
MT. WILSON       N/A     32  34 100 MISG        N/A
LAS VEGAS NV   PTSUNNY   51  39  63 S17       29.77F
PHOENIX AZ     LGT RAIN  53  49  86 W13       29.93R
TIJUANA        PTSUNNY   64  46  52 E5        29.98R
ENSENADA NW      N/A     55  32  42 E9        29.98S

$$

OFFSHORE ISLANDS

CITY           SKY/WX    TMP DP  RH WIND       PRES   REMARKS
CATALINA ARPT  CLOUDY    46  44  93 NW14      29.92S
SAN NICOLAS IS MOSUNNY   60  44  55 SW15      29.93R

$$

MARINE AND OFFSHORE BUOY REPORTS

STATION/POSITION SKY/WX   TEMP    WIND        PRES    SWELL
                          AIR SEA DIR/SP/G            HT/PER/DIR
                          (F)     (DEG/KT/KT) (MB)    (FT/S/D)
TANNER BANKS               57 61  270/ 12/ 16 1014.1R
S CLEMENTE BASIN           57 62  210/ 10/ 12 1014.0R   3/280/12
SAN NICOLAS IS.               60                N/A     3/300/12
SO. S. ROSA ISLA           56 59  260/  6/  8 1012.9R   5/10
W. S. BARBARA CH           53 59  250/ 10/ 14 1012.8R   7/310/10
S. MONICA BASIN            57 62  180/  2/  4 1013.5R   2/260/10
S PEDRO CHANNEL               60                N/A     2/270/12
DANA POINT                    61                N/A     2/250/12
CMP PENDLETON NS              62                N/A     2/220/14
TORREY PINES OTR              62                N/A     2/200/15
LA JOLLA 1                 58 62  150/  8/ 11 1014.0R
MISSION BAY BUOY              62                N/A     2/250/13
SAN DIEGO BAY                 64              1014.6R
POINT LOMA SOUTH              62                N/A     3/260/13

$$



USA.gov is the U.S. government's official web portal to all federal, state and local government web resources and services.